Tracking 19717 objects as of 24-Jun-2019
HD Live streaming from Space Station
objects crossing your sky now

CZ-4 DEB

Track CZ-4 DEB now!
10-day predictions


NORAD ID: 26286
Int'l Code: 1999-057FY
Perigee: 676.1 km
Apogee: 782.0 km
Inclination: 98.5 °
Period: 99.2 minutes
Semi major axis: 7100 km
RCS: 0.0126 m2 (small)
Launch date: October 14, 1999
Source: People's Republic of China (PRC)
Launch site: Taiyaun Space Center, China (TSC)

Note: This is SATELLITE DEBRIS
aabbcc
Your satellite tracking list
Your tracking list is empty




NASA's NSSDC Master Catalog

Two Line Element Set (TLE):
1 26286U 99057FY  19174.89168269 +.00000211 +00000-0 +63286-4 0  9998
2 26286 098.5115 158.7256 0074519 153.4657 263.5883 14.51142813016323
Source of the keplerian elements: AFSPC